Regional Weather Roundup
Issued by NWS

Home | Current Version | Previous Version | Text Only | Print | Product List | Glossary Off
Versions: 1 2 3 4 5 6 7 8 9 10 11 12 13 14 15 16 17 18 19 20 21 22 23 24 25 26 27 28 29 30 31 32 33 34 35 36 37 38 39 40 41 42 43 44 45 46 47 48 49 50

190
ASUS43 KTOP 260159
RWRKS

WEATHER ROUNDUP FOR KANSAS
NATIONAL WEATHER SERVICE GOODLAND KS
900 PM CDT TUE JUL 25 2017

NOTE:  "FAIR" INDICATES FEW OR NO CLOUDS BELOW 12,000 FEET WITH NO
SIGNIFICANT WEATHER AND/OR OBSTRUCTIONS TO VISIBILITY.

KSZ001>006-013>018-027>032-041>047-260300-
NORTHWEST KANSAS

CITY           SKY/WX    TMP DP  RH WIND       PRES   REMARKS
GOODLAND       CLOUDY    84  62  47 S14       29.95R
HAYS           PTCLDY    93  66  40 S16       29.91R HX  96
HILL CITY      PTCLDY    93  66  40 S8        29.90R HX  96
RUSSELL        CLEAR     92  66  42 SE13      29.91R
$$

KSZ061>065-074>080-084>089-260300-
SOUTHWEST KANSAS

CITY           SKY/WX    TMP DP  RH WIND       PRES   REMARKS
DODGE CITY     CLEAR     90  62  39 S16G23    29.95S
ELKHART          N/A     85  53  33 S12         N/A
GARDEN CITY    CLOUDY    88  62  41 SE14      29.94S
GREAT BEND     CLEAR     91  67  44 SE13      29.94R
LIBERAL        PTCLDY    90  63  40 S20       29.96R
$$

KSZ066>073-081>083-090>101-260300-
SOUTHEAST KANSAS

CITY           SKY/WX    TMP DP  RH WIND       PRES   REMARKS
CHANUTE        CLEAR     84  70  62 S6        30.01R
COFFEYVILLE    CLEAR     86  71  60 SE8       29.99F
HUTCHINSON     CLEAR     89  66  46 SE14      29.94R
MEDICINE LODGE   N/A     93  64  38 S13       29.93R
NEWTON         CLEAR     84  68  58 SE9       29.98R
PARSONS        CLEAR     84  70  62 S3        30.01S
WICHITA INTL   PTCLDY    89  67  47 SE14      29.95R
WICHITA JABRA  CLEAR     89  67  47 SE14      29.97R
WICHITA MCCONL CLEAR     89  66  46 S12       29.97R
WINFIELD       CLEAR     89  68  49 SE13      29.98R
$$

KSZ007>012-019>026-033>040-048>060-102>105-260300-
NORTHEAST KANSAS

CITY           SKY/WX    TMP DP  RH WIND       PRES   REMARKS
CONCORDIA      CLEAR     84  69  60 SE9       29.93R
EMPORIA        CLEAR     85  71  63 SE10      29.99R
LAWRENCE       CLEAR     82  75  79 E6        30.00R
MANHATTAN      CLEAR     89  72  56 SE9       29.96R HX  96
OLATHE IND     CLEAR     85  72  65 SE7       30.03R
OLATHE EXE     CLEAR     84  75  74 SE5       30.03R
SALINA         CLEAR     92  66  42 SE15      29.93R
TOPEKA BILLARD CLEAR     84  75  74 E6        29.99R
TOPEKA FORBES  CLEAR     86  73  65 SE8       30.00R
$$




USA.gov is the U.S. government's official web portal to all federal, state and local government web resources and services.